STARLINK-34251, 64205

Orbit data source: Space-Track

STARLINK-34251, 64205 is a payload satellite owned by SpaceX/Seattle (US) in LEO that was launched on Sat, 31 May 2025 UTC via an FALCON 9 launch vehicle from the Air Force Western Test Range (AFWTR). Payload-class satellites include a variety of spacecraft equipped with specific instruments for various scientific and technological missions. These include communications satellites like Starlink; space stations such as the ISS; scientific satellites like the Hubble; Earth observation satellites from companies like Planet Labs, Umbra, and HawkEye 360; GPS; miniature CubeSats for education and research; and military/defense satellites.

Loading next visibility...
Identifier
64205, 2025-117C
Orbit
LEO
Last TLE update
1 day ago
Origin
Manufacturer
SpaceX/Seattle
Mission
Operational Commercial Communications
Bus & Motor
STARLINK V2MO, Unknown motor
Mass
575 kg wet, ~530 kg dry
Launch date (UTC)
2025-05-31 (2 months ago)
Launch vehicle
FALCON 9
Launch site
Air Force Western Test Range (AFWTR)
Object type
Payload
Rocket body
Debris
Shape & HBR
Box + 1 Pan, 14.5 m
Radar Cross Section
41.120 m², Large (>1 m²)

Expand to show TLE details & history

TLE from 1 day ago
0 STARLINK-34251
1 64205U 25117C   25198.61702706  .00035895  00000-0  90285-3 0  9994
2 64205  53.1599  53.7238 0001144  82.8312 277.2823 15.39629350  7475
Epoch: 2025-07-17T14:48Z
TLE epoch observation values (Epoch: 2025-07-17T14:48:31.137Z)
Latitude
-0.00004°
Longitude
-104.08624°
Altitude
448.009 km
Speed
7.645 km/s
True Right ascension
03h 34m 53s
True Declination
0° 00' 00"
Sunlit
Object was in daylight at epoch
Visualization orbit readout
Latitude
52.04927°
Longitude
-36.55308°
Altitude
452.477 km
Speed
7.648 km/s
Apparent Right ascension
14h 30m 14s
Apparent Declination
31° 46' 09"
Sunlit
Object is in daylight
Visualization observer readout
Local Sidereal Time
06:24:50
Azimuth
46.556° ENE
Elevation
-0.082°
Doppler factor
1
Orbital elements
Apogee altitude
448.243 km
Perigee altitude
446.681 km
Semi-major axis
6,825.599 km
Eccentricity
0.00011
Inclination
53.1599°
RAAN
53.7238°
Arg. of periapsis
82.8312°
True anomaly
277.2693°
Mean anomaly
277.2823°
Eccentric anomaly
277.2758°
Mean motion
3.84886 °/min
Orbital period
93.53 mins
BSTAR
0.00090285
Loading maneuver chart data...
Loading SW <> Apogee altitude chart data...
Loading historical data...
Loading historical data...
Loading historical data...
Loading historical data...
Loading historical data...
Loading historical data...
Loading historical data...
|